Location: Mount Kobau Star Party
(49.1167°N, 119.7333°W)
Time: 10:27:55
(UTC-07:00)

BlueWalker 3 - Pass Details

Date: 01 March 2024
Orbit: 485 x 496 km, 53.2° (Epoch: 11 April)

Event Time Altitude Azimuth Distance (km) Brightness Sun altitude
Rises 19:29:51 0° 294° (WNW) 2,556 7.0 -18.2°
Reaches altitude 10° 19:32:03 10° 291° (WNW) 1,671 5.8 -18.5°
Maximum altitude 19:35:46 61° 212° (SSW) 553 2.1 -19.1°
Enters shadow 19:36:39 45° 156° (SSE) 667 2.2 -19.2°
